Wind_Speed
87 87 88 88 88 89 90 90 90 90 90 90 89 88 87 86 84 82 80 79 78 77 76 75 74 72 71 70 68 67 67 67 68 69 70 71 72 71 70 68 66 64 62 60 58 56 55 55 55 56 58 59 60 61 63 64 65 67 68 70 71 72 74 77 79 82 84 86 87 86 86 85 84 83 82 81 80 79 77 74 71 69 67 65 63 61
89 89 89 90 90 91 92 93 94 94 93 92 91 89 87 85 83 81 80 78 77 76 75 73 72 71 69 68 68 68 68 70 71 73 73 73 72 71 69 67 64 62 60 58 57 56 56 56 58 59 60 61 62 64 65 66 67 69 71 73 75 77 79 82 84 86 87 87 87 86 85 84 83 82 82 81 80 78 75 72 69 67 66 64 62 60
91 91 92 93 94 94 95 96 97 96 95 93 91 89 86 84 82 80 79 77 76 75 73 72 70 69 69 69 69 70 72 74 75 76 75 74 72 69 67 64 62 60 58 57 57 57 58 59 61 62 63 64 65 66 67 68 70 72 74 77 80 82 84 86 87 87 87 87 86 85 84 84 83 82 81 80 78 76 73 70 68 66 65 63 61 59
93 94 95 96 97 98 98 98 98 96 95 92 90 88 85 83 81 79 77 76 74 73 72 71 71 71 71 72 73 74 76 77 77 76 75 72 70 67 64 62 60 59 59 59 60 61 62 64 65 67 68 69 70 71 72 73 75 77 80 83 85 87 88 88 88 87 86 85 84 84 84 83 83 82 80 79 76 74 71 69 67 65 64 62 60 58
95 96 97 98 99 99 99 98 97 95 92 90 88 85 83 81 79 78 76 75 74 74 74 74 74 75 75 76 77 77 78 77 76 75 73 70 68 66 65 63 63 63 64 65 67 68 70 71 72 74 74 75 76 77 78 79 81 83 85 86 87 88 88 87 86 85 84 83 83 83 83 83 82 81 79 77 74 72 69 67 66 64 63 61 59 57
96 97 98 99 99 98 97 95 93 91 89 87 85 83 82 81 79 78 78 77 77 77 78 78 79 79 79 79 79 79 79 78 76 75 73 72 71 70 70 70 71 72 73 75 76 77 78 79 80 81 81 81 82 82 83 83 84 85 86 87 87 87 86 85 85 84 83 82 82 82 82 82 81 80 77 75 72 70 68 66 65 64 62 60 57 55
98 98 98 98 97 95 93 91 89 87 85 84 84 83 83 82 82 82 81 81 82 82 82 83 83 83 83 83 82 82 81 81 80 80 79 79 79 80 80 81 81 82 83 83 84 84 85 85 85 85 84 84 84 84 84 85 85 85 85 85 85 85 85 84 84 83 83 82 82 82 81 81 80 78 76 73 70 68 66 65 64 63 61 59 56 54
99 98 97 96 94 92 90 88 87 86 86 85 85 86 86 86 86 85 85 85 85 85 86 86 86 87 86 86 86 86 86 86 86 86 87 87 88 88 88 89 89 89 90 90 90 90 89 89 88 87 86 85 85 84 84 84 84 84 84 84 84 84 83 83 83 83 82 82 81 81 80 80 79 77 74 71 68 66 65 64 63 62 61 58 55 53
99 98 96 94 92 90 89 88 88 88 88 88 88 89 89 89 89 89 88 88 88 88 88 88 89 89 89 90 90 90 90 91 91 92 92 93 94 94 94 94 94 94 94 94 93 93 92 91 89 88 86 85 85 84 84 83 83 83 83 83 83 82 82 83 83 83 82 82 81 80 79 79 77 75 72 69 66 65 64 63 63 62 60 57 54 52
98 96 94 93 91 90 89 89 90 91 91 91 91 91 91 91 90 90 90 90 90 90 90 90 91 91 92 93 93 94 94 95 96 97 97 98 98 99 99 98 98 97 97 96 96 95 93 92 90 88 87 86 85 84 83 83 82 82 82 82 82 82 82 82 82 82 82 81 80 79 78 77 76 73 70 67 64 63 63 62 62 61 58 56 53 51
96 94 93 92 91 91 91 91 91 92 92 92 93 92 92 92 91 91 91 91 92 92 92 93 93 94 95 96 97 98 99 100 101 101 102 103 103 102 102 101 101 100 99 98 97 95 94 92 90 88 87 86 86 85 84 83 82 81 81 81 81 81 81 82 82 82 81 80 79 78 77 75 73 70 67 64 63 62 62 62 61 59 57 55 52 50
94 93 92 92 92 92 92 92 93 93 93 93 93 93 93 93 93 92 92 93 94 95 96 96 98 98 99 100 101 102 103 104 104 105 105 106 105 105 104 103 103 102 100 99 97 95 94 92 91 89 88 88 87 86 84 83 82 81 81 81 81 81 81 81 81 81 80 79 77 76 74 73 70 68 65 63 62 61 61 61 60 58 56 54 52 50
94 94 93 93 93 93 93 93 93 94 94 94 94 94 94 95 95 95 95 96 97 98 100 101 102 103 104 105 105 106 106 106 107 107 107 107 107 106 105 105 103 102 101 99 98 96 94 93 92 91 90 89 88 86 85 83 82 82 81 81 81 81 81 81 80 80 78 77 75 73 71 69 68 65 63 61 60 60 60 60 58 57 55 54 52 50
95 95 94 94 94 94 94 95 95 95 95 96 96 96 97 97 98 98 99 100 102 103 104 104 105 106 107 108 108 108 108 108 108 108 108 107 107 107 106 105 103 102 101 99 98 97 96 95 94 93 92 91 89 87 85 84 83 82 82 81 81 81 80 80 79 78 76 74 71 68 66 66 65 64 63 61 60 59 59 58 57 56 55 54 52 50
96 96 96 96 96 96 97 97 97 98 98 99 99 100 101 101 102 103 104 104 106 107 107 107 108 108 109 109 109 109 108 108 108 108 108 108 107 106 105 104 102 102 100 99 98 98 97 96 95 95 94 92 90 88 86 84 83 83 82 82 81 81 80 79 77 76 74 71 67 64 62 63 64 64 63 62 59 58 57 56 56 55 55 54 53 50
99 99 98 99 99 100 100 100 101 101 102 103 103 104 105 105 106 107 107 108 108 108 108 108 108 109 109 110 110 109 109 109 109 108 108 107 106 105 104 102 101 101 100 99 98 97 97 96 96 95 94 93 92 90 88 86 85 84 83 82 82 81 79 77 75 73 70 66 62 58 58 60 63 65 65 63 60 57 55 54 54 54 55 55 53 52
102 102 102 102 102 103 104 104 105 106 106 107 107 108 108 108 109 109 109 109 109 109 109 109 109 109 109 110 111 111 110 109 108 108 106 105 104 104 103 101 100 100 99 99 98 97 96 95 95 95 94 94 93 91 89 88 87 85 84 83 82 80 78 76 73 70 66 61 56 54 55 59 63 65 67 65 61 56 53 52 53 54 55 55 55 54
105 105 105 105 106 107 107 108 108 109 109 110 110 110 110 110 110 110 110 109 109 109 109 109 109 109 109 110 111 111 111 109 107 106 105 103 103 102 102 100 100 99 99 98 98 97 96 95 95 95 95 95 94 93 91 90 88 87 85 83 81 79 76 73 70 66 61 55 51 51 53 58 62 66 68 67 63 57 53 51 52 53 55 56 57 56
108 108 108 109 109 110 110 110 111 111 111 112 111 111 111 111 111 110 110 110 110 110 110 110 110 110 110 110 111 111 110 108 106 104 103 102 102 102 102 101 100 99 99 98 98 97 97 97 96 96 96 96 95 94 93 92 89 87 85 82 79 77 74 70 67 62 56 50 47 48 53 58 63 66 68 68 65 59 53 51 52 53 55 57 59 59
111 112 112 112 112 112 112 112 113 113 113 112 112 112 111 111 111 111 111 111 111 111 111 111 111 111 111 111 111 110 109 107 105 104 103 102 102 102 102 101 100 99 99 99 99 99 98 98 98 98 98 98 97 96 95 92 89 86 83 80 77 74 70 67 63 58 53 47 45 47 52 58 62 66 68 69 65 59 53 52 52 55 57 58 60 61
114 114 115 115 114 114 114 114 114 114 114 114 113 113 113 113 113 113 113 113 113 113 113 113 113 113 112 111 110 110 109 107 104 103 103 102 102 102 102 101 100 100 100 100 101 101 101 101 101 100 100 99 98 97 95 92 88 85 81 78 74 70 67 63 60 55 51 46 45 47 51 56 61 65 67 68 64 59 54 52 53 55 58 59 61 62
117 117 117 117 116 116 115 116 116 116 116 115 115 115 115 116 116 116 116 116 116 115 115 115 114 114 112 111 110 109 108 106 104 103 103 102 102 103 104 103 102 102 102 103 104 104 104 103 103 103 102 101 99 97 94 90 86 82 78 74 70 67 63 60 57 53 50 46 45 46 49 54 58 62 65 65 62 57 53 53 54 56 59 60 61 62
119 119 119 119 118 118 118 118 118 118 118 118 118 118 118 119 119 118 119 118 118 117 116 115 115 114 112 110 110 109 108 107 106 105 103 103 104 105 106 106 105 105 106 106 107 107 107 106 105 104 102 101 98 95 91 87 83 78 74 71 67 63 60 57 54 52 49 46 45 45 48 52 56 59 61 60 58 54 53 53 55 58 60 61 61 61
122 122 122 121 121 120 120 120 120 121 121 121 121 121 121 121 121 121 120 119 118 117 116 115 114 113 112 111 110 110 110 109 108 107 106 106 107 108 109 109 109 109 110 110 110 109 108 107 105 104 101 99 96 92 88 83 79 75 71 68 64 61 58 55 53 51 49 47 45 46 47 49 52 55 56 56 54 53 53 54 57 59 60 61 61 61
126 125 125 124 124 124 123 123 124 124 124 125 124 124 124 124 124 123 122 121 119 118 117 116 115 114 114 113 113 112 112 113 112 111 110 111 111 112 113 113 113 112 112 112 111 110 108 106 104 102 99 96 92 88 84 80 76 72 68 65 62 59 56 54 52 51 49 47 46 46 47 48 50 52 52 52 52 52 53 55 58 60 61 61 61 60
129 129 128 128 128 128 127 127 127 128 128 128 128 127 127 127 126 125 124 123 121 120 119 118 117 117 117 116 116 116 116 116 116 115 114 114 115 115 115 115 115 114 113 112 111 109 107 105 102 99 96 92 89 85 81 77 73 69 66 63 60 57 55 53 52 51 50 48 47 47 47 48 49 50 50 50 51 52 53 56 58 60 60 61 60 60
133 132 132 132 131 131 131 131 131 131 131 131 131 130 130 129 128 127 126 125 124 123 122 120 120 120 120 120 119 119 119 119 118 118 117 117 116 116 117 116 115 114 113 112 110 107 105 102 99 96 92 89 86 82 78 74 71 67 64 62 59 56 54 53 52 51 50 49 48 48 48 48 49 49 50 50 51 52 54 56 58 60 60 60 60 60
136 136 135 135 135 135 134 134 134 134 134 133 133 133 132 131 130 129 129 128 127 126 124 123 123 122 122 122 121 121 120 120 120 119 119 118 117 117 117 116 114 113 112 110 108 105 102 99 96 92 89 86 83 80 76 72 69 65 63 60 58 55 54 52 52 51 51 50 50 49 50 50 50 50 50 51 52 53 55 57 58 59 59 60 60 60
139 139 138 138 138 137 137 137 137 136 136 136 135 135 134 133 132 131 131 130 129 127 126 125 125 124 123 123 122 122 121 121 120 120 119 118 118 117 116 115 113 111 109 108 105 102 99 96 92 89 87 84 81 78 74 70 67 64 61 59 57 55 53 52 51 51 51 50 50 51 51 51 51 52 52 53 53 55 56 57 58 59 59 59 60 60
141 141 141 140 140 140 139 139 139 138 138 138 137 137 136 135 134 133 132 131 130 129 128 127 126 126 125 124 123 122 122 122 121 120 119 118 118 117 116 113 111 109 107 105 103 100 97 93 90 87 84 82 79 76 72 69 65 63 60 58 56 54 53 52 51 51 51 51 51 51 51 52 52 53 54 54 55 56 57 57 58 59 59 59 60 61
144 143 143 143 142 142 141 141 140 140 139 139 138 138 137 136 135 134 133 132 131 130 129 129 128 127 126 125 123 123 123 123 122 120 119 118 117 116 114 112 109 107 104 102 100 98 95 92 88 85 82 80 78 75 71 68 65 62 59 57 56 54 53 52 52 51 51 51 51 51 52 52 53 53 54 55 57 57 58 59 59 59 60 60 61 61
145 145 144 144 143 143 142 142 141 141 140 139 138 138 137 136 135 134 133 132 131 131 130 129 129 128 127 126 124 123 123 123 121 120 118 117 116 114 111 109 107 104 102 99 98 96 93 91 88 84 81 79 77 74 71 68 64 61 59 57 56 55 54 53 52 52 51 51 51 52 52 52 53 53 54 55 57 58 59 60 61 61 61 61 62 62
145 145 145 144 144 143 142 142 141 141 140 139 138 138 137 136 135 134 133 132 132 131 130 130 129 128 128 127 125 124 123 122 120 118 116 115 113 111 109 107 105 103 100 98 96 94 92 90 88 85 82 79 77 74 71 68 64 61 59 58 56 55 54 54 53 53 53 52 52 52 52 52 53 53 54 55 56 57 59 60 61 62 62 62 62 62
144 144 144 143 143 142 142 141 141 140 139 138 138 137 136 135 135 134 133 132 132 131 130 130 129 128 127 126 125 123 122 119 117 115 113 112 110 109 106 105 103 101 100 98 96 93 92 90 87 85 82 79 77 74 71 68 65 62 60 58 57 56 55 55 54 54 54 53 53 53 53 52 52 53 53 54 55 57 58 59 60 61 61 61 61 60
143 142 142 142 141 141 141 140 139 139 138 137 137 136 135 135 134 133 133 132 131 130 130 129 127 126 125 124 123 121 119 116 114 112 110 109 108 106 105 104 102 100 99 98 95 93 92 90 87 85 83 80 78 74 71 68 65 63 61 59 58 57 56 56 55 55 55 54 54 54 53 53 53 53 53 54 55 56 57 57 58 58 58 58 58 57
140 140 140 140 140 139 139 138 138 138 137 136 135 135 134 134 133 132 132 131 130 129 127 126 124 122 121 119 118 117 115 112 110 109 108 107 106 105 104 103 101 99 99 97 95 93 91 89 87 85 83 81 79 76 72 69 66 64 62 60 59 58 58 57 56 56 56 55 55 55 54 54 53 53 53 54 54 55 56 56 56 56 56 56 55 55
138 138 138 137 137 137 137 137 136 136 135 135 134 133 132 132 131 130 129 128 127 125 123 122 120 118 116 114 113 112 111 109 108 107 106 105 104 103 103 102 100 98 97 96 94 92 91 89 87 85 83 81 79 76 73 70 67 65 63 62 60 59 59 58 57 57 56 56 56 55 55 54 54 54 54 54 54 55 55 56 56 55 55 55 55 55
134 134 134 133 133 134 134 134 133 133 132 131 131 130 129 129 128 127 126 124 123 121 120 118 116 115 113 112 110 109 108 107 107 106 105 104 103 102 102 101 99 97 96 95 93 91 90 88 87 85 83 81 79 77 74 71 69 67 65 63 62 61 60 59 59 58 57 57 57 56 56 55 55 54 54 54 54 55 55 55 55 55 55 55 55 56
129 129 129 128 128 129 129 129 128 128 127 127 126 126 125 125 124 123 122 121 119 118 117 116 114 113 112 111 110 108 107 107 106 105 104 102 101 101 100 99 98 97 95 93 92 90 89 88 86 85 83 81 79 77 75 73 70 68 66 65 63 62 62 61 60 59 59 58 57 57 56 56 55 55 55 55 55 55 55 55 55 55 55 56 57 58
123 123 124 123 123 124 124 124 124 123 123 122 122 122 122 121 121 120 119 118 117 116 115 114 113 112 111 110 109 108 107 106 105 104 103 101 100 99 99 98 97 96 94 92 91 90 89 88 87 85 83 82 80 78 76 74 72 70 68 66 65 64 63 62 61 61 60 59 59 58 57 57 56 56 55 55 55 55 55 55 55 56 56 57 58 59
120 120 120 120 120 120 120 120 120 120 119 119 119 119 119 119 118 118 117 116 116 115 114 113 113 112 111 110 109 108 106 105 104 103 102 101 99 99 98 97 96 95 93 92 91 90 89 88 86 85 83 82 80 79 77 75 73 71 70 68 67 66 65 64 63 62 61 61 60 60 59 58 57 57 56 56 56 56 56 56 56 56 57 57 58 59
117 118 118 118 118 118 118 118 118 118 118 117 117 117 116 116 116 116 116 116 115 114 113 113 113 113 112 111 109 108 106 105 104 102 101 100 99 98 97 96 95 94 93 92 91 90 89 88 86 85 84 82 81 80 78 77 75 73 71 70 69 68 67 66 65 64 63 62 62 61 60 59 58 58 57 57 57 57 57 57 57 57 57 57 58 59
116 116 116 117 117 117 117 117 117 117 117 116 116 116 115 115 115 115 115 115 115 114 113 113 113 112 112 111 110 108 106 105 104 102 101 100 99 98 97 96 95 94 93 93 92 91 89 88 87 86 84 83 82 81 79 78 76 75 73 72 70 69 68 68 67 66 65 64 64 63 62 61 59 58 58 58 58 58 58 57 58 58 58 58 58 58
116 116 116 116 116 116 117 117 117 117 117 116 116 115 114 114 114 114 114 115 114 114 113 113 112 112 112 111 110 108 107 105 104 102 101 100 99 98 97 97 96 95 94 93 92 91 90 89 88 87 85 84 83 82 80 79 78 76 75 74 72 71 70 69 68 67 67 66 65 65 63 62 60 59 58 58 58 58 58 58 58 58 58 58 58 58
117 117 117 116 116 117 117 117 117 117 116 116 116 115 115 114 114 114 114 114 114 114 113 113 112 112 112 111 110 108 107 106 104 103 102 100 99 98 98 97 97 96 95 94 93 92 91 90 89 88 86 85 84 83 82 81 79 78 77 75 74 73 72 71 70 69 68 68 67 67 65 63 61 60 59 59 58 58 58 58 58 58 58 58 58 58
118 118 118 117 117 117 117 117 117 117 116 116 116 115 115 114 114 114 114 114 114 114 113 113 112 112 112 111 110 109 108 106 105 104 103 101 100 99 98 98 97 97 96 95 94 93 92 91 90 89 88 86 85 85 83 82 81 80 79 78 76 75 74 73 72 71 70 70 69 69 67 65 63 61 59 59 58 58 58 58 58 58 58 58 58 58
120 120 119 119 118 118 118 118 118 118 118 117 117 116 115 115 115 115 115 115 114 114 114 113 113 112 112 111 110 109 108 107 106 105 104 102 101 100 99 99 98 98 97 96 95 95 94 92 91 90 89 88 87 86 85 84 83 82 81 79 78 77 75 74 73 72 72 71 71 71 70 68 65 62 61 59 59 58 58 58 57 58 58 58 58 58
121 121 120 120 119 120 120 119 119 119 119 119 118 117 117 116 116 116 116 115 115 115 114 114 113 113 113 112 111 110 109 108 107 106 105 104 102 101 100 100 99 99 98 98 97 96 95 94 93 92 90 89 88 87 86 85 84 83 82 81 79 78 77 76 75 74 73 73 73 73 72 70 68 65 63 61 60 59 58 58 57 57 57 57 58 58
123 122 121 121 121 121 121 121 121 121 121 120 120 119 118 118 117 117 117 116 116 116 115 115 115 114 114 113 112 112 111 110 109 108 107 105 104 103 102 101 101 100 100 99 98 97 97 95 94 93 92 91 89 88 87 86 85 84 83 82 80 79 78 76 75 74 73 73 73 73 73 72 71 68 66 64 62 61 60 59 58 58 57 57 57 57
124 123 122 122 122 122 122 122 122 122 122 121 121 121 120 119 119 118 118 118 117 117 117 116 116 115 115 115 114 113 112 111 111 110 109 107 106 104 103 103 102 101 101 100 100 99 98 97 96 95 94 92 91 89 89 88 87 85 84 83 82 80 79 77 76 75 74 73 73 73 73 73 72 70 68 66 65 63 62 61 59 59 58 57 57 57
124 124 123 123 123 123 122 122 122 123 123 122 122 122 121 121 121 120 120 119 119 118 118 117 117 117 116 116 115 115 114 113 112 112 111 109 108 106 105 104 103 103 102 102 101 101 100 99 98 97 96 94 93 91 89 88 88 86 85 84 83 82 80 79 78 76 75 74 74 73 73 72 72 70 69 68 66 65 64 63 61 60 59 58 57 57
Wind_Direction
275 276 277 278 279 280 281 281 281 282 282 282 282 283 284 284 285 285 285 286 286 286 286 286 287 287 287 288 288 288 289 290 291 293 294 296 297 298 299 299 300 300 299 299 297 295 293 291 289 288 288 288 288 287 288 288 288 288 289 290 291 292 294 295 297 299 300 302 303 303 304 305 305 306 307 308 308 309 310 310 310 311 311 312 312 313
274 275 276 277 278 279 280 281 281 281 281 281 282 282 283 284 284 285 285 285 285 286 286 286 286 286 286 286 287 287 288 290 291 293 294 296 297 297 298 298 298 298 297 296 295 293 291 290 289 288 288 288 288 288 288 288 288 289 290 291 292 293 295 296 298 299 301 302 302 303 304 304 305 305 306 307 308 309 309 309 309 310 310 311 311 312
273 274 275 276 277 278 279 280 280 280 280 281 281 282 283 284 284 285 285 285 285 285 285 285 285 285 285 285 286 287 288 290 291 293 294 295 296 297 297 297 297 296 295 294 293 291 290 289 289 289 288 288 288 288 288 289 289 290 291 292 293 294 296 297 298 299 300 301 302 302 303 304 304 305 306 307 308 308 309 308 308 309 309 309 310 310
272 273 275 276 277 278 279 279 280 280 280 281 282 283 283 284 285 285 285 285 284 284 284 284 284 284 284 284 285 286 288 290 291 293 294 295 295 295 295 295 294 293 292 292 291 291 290 290 289 289 289 289 288 288 289 289 289 290 291 292 294 295 296 297 298 299 300 301 301 302 303 303 304 305 306 307 308 308 308 307 307 307 307 308 308 308
272 273 275 276 278 278 279 279 280 280 281 282 282 283 284 284 284 284 283 283 282 282 282 282 282 282 283 284 285 287 288 290 291 292 292 293 292 292 292 291 290 290 290 290 290 290 290 290 289 289 289 289 288 288 289 289 290 291 292 293 294 295 296 297 298 299 300 300 301 302 302 303 304 305 306 307 307 307 306 306 306 306 306 306 306 306
273 274 276 277 278 279 279 280 280 281 281 282 282 282 282 282 282 281 281 281 280 280 281 281 281 282 283 283 285 286 287 288 289 289 289 289 288 288 288 287 287 288 288 288 289 289 290 290 290 290 290 289 289 289 290 290 291 291 292 293 294 295 296 297 298 299 300 300 301 302 302 303 304 305 306 307 307 306 305 304 304 305 305 304 304 304
274 275 276 277 278 278 278 279 279 279 280 280 280 280 280 280 280 280 280 280 280 280 280 280 281 281 282 282 283 284 285 285 286 286 286 285 286 286 286 287 287 288 288 289 290 290 291 292 292 292 291 291 291 291 291 291 292 292 293 294 295 296 297 297 298 299 300 300 301 302 303 303 304 305 306 306 305 304 303 303 303 303 303 303 302 302
275 276 276 276 276 277 277 277 277 277 277 277 277 278 278 278 279 279 279 279 279 279 280 280 280 281 281 282 282 283 283 284 284 284 285 285 286 286 287 288 288 289 289 290 291 292 292 293 293 293 293 293 293 293 292 292 292 293 293 294 295 296 297 298 299 299 300 301 301 302 303 303 304 304 304 304 303 302 301 301 301 302 302 301 300 299
275 275 275 275 275 275 274 275 275 275 275 275 276 276 277 277 278 278 278 278 278 279 279 279 280 280 281 281 282 282 283 284 284 285 285 286 287 287 288 289 289 290 290 291 292 292 293 294 294 294 294 294 294 294 293 293 293 293 294 295 296 297 298 298 299 300 300 301 302 303 303 303 303 303 302 302 301 300 299 299 300 300 299 298 297 297
274 274 274 274 273 273 273 273 273 274 274 274 275 275 276 276 277 277 277 277 278 278 278 279 279 280 280 281 282 282 283 284 284 285 286 286 287 288 289 289 290 291 291 291 292 293 293 294 294 295 295 296 296 295 294 294 294 294 295 295 296 297 298 299 300 300 301 302 302 303 302 302 301 300 300 300 299 298 297 298 298 298 297 296 295 295
273 273 273 272 272 272 272 272 272 273 273 274 274 275 275 275 275 276 276 276 277 278 278 278 279 279 280 281 282 282 283 284 285 285 286 287 288 288 289 290 291 291 292 292 293 293 294 294 295 295 296 297 297 297 296 295 295 295 296 296 297 298 299 299 300 301 301 302 302 302 301 300 299 298 298 297 297 296 296 297 297 296 295 293 293 293
272 272 271 271 271 271 271 271 272 272 272 273 273 273 274 274 274 275 275 276 276 277 278 278 279 279 280 281 282 283 283 284 285 286 287 287 288 289 290 291 291 292 293 293 294 294 294 295 295 296 297 298 298 298 297 296 296 296 296 297 298 298 299 300 300 301 301 301 301 300 299 297 296 295 295 295 295 295 295 296 295 294 292 291 291 291
271 270 270 270 270 270 270 270 270 271 271 271 272 272 273 273 274 274 274 275 276 277 277 278 279 280 280 281 282 283 284 284 285 286 287 288 289 290 291 292 292 293 293 294 294 295 295 295 296 296 298 299 299 299 298 297 297 297 297 298 298 299 300 300 300 300 300 299 299 298 296 294 293 293 293 293 294 294 295 294 293 292 291 290 290 290
269 269 269 269 269 269 269 269 269 269 270 270 271 271 272 272 273 274 274 275 276 276 277 278 279 280 281 281 282 283 284 285 286 287 288 289 290 291 292 292 293 293 294 294 295 295 295 296 296 297 298 299 300 300 299 298 298 298 298 299 299 300 300 300 300 299 298 298 297 296 294 292 291 291 291 292 293 294 294 292 291 290 289 289 289 289
267 268 268 268 268 268 268 268 268 268 269 269 270 271 271 272 273 273 274 275 275 276 277 278 279 280 281 281 282 283 284 285 287 288 289 289 290 291 292 292 293 294 294 295 295 296 296 297 298 298 299 300 301 301 300 299 299 298 299 300 300 301 301 300 299 298 297 296 295 293 292 290 290 290 290 290 292 293 292 290 289 288 288 288 287 287
266 266 266 266 267 267 267 267 268 268 269 269 270 271 271 272 272 273 274 274 275 276 277 278 279 280 281 282 283 284 285 286 287 288 289 290 290 291 292 292 293 294 295 295 296 297 297 298 299 299 300 301 301 302 301 300 299 299 300 300 301 301 300 299 298 297 296 294 293 291 290 289 288 288 288 290 292 293 291 288 287 287 287 286 286 285
265 265 265 266 266 266 267 267 268 268 269 270 270 271 272 272 273 274 274 275 276 276 277 278 279 280 281 282 283 285 286 286 287 288 289 290 290 291 292 293 293 294 295 296 296 297 297 298 298 299 300 301 301 301 301 300 300 300 300 300 300 300 299 298 297 295 294 292 290 288 287 286 286 286 286 288 291 292 290 287 286 285 286 285 285 284
264 265 265 265 266 266 267 268 268 269 270 270 271 272 272 273 274 274 275 275 276 277 278 278 279 280 281 282 284 285 286 287 287 288 289 290 290 291 292 293 294 294 295 295 296 296 297 297 298 298 299 299 300 300 300 299 299 299 300 300 300 299 298 297 295 293 291 288 285 283 282 281 282 282 283 286 289 290 288 286 285 285 285 285 284 284
265 265 265 266 266 267 268 268 269 270 271 271 272 273 273 274 274 275 275 276 277 277 278 279 280 281 282 283 284 285 286 287 287 288 289 289 290 291 292 293 293 294 294 295 295 295 296 296 296 297 298 298 299 299 298 298 298 299 299 299 299 298 297 295 293 291 287 283 278 275 275 275 276 277 279 282 285 287 287 285 284 284 284 284 284 284
265 265 266 266 267 268 268 269 270 271 271 272 273 273 274 274 275 275 276 276 277 278 278 279 280 281 282 283 284 285 286 286 287 288 288 289 290 291 292 292 292 293 293 294 294 294 295 295 295 296 296 297 297 297 297 297 298 298 298 298 297 296 295 293 291 288 284 277 271 267 267 268 270 272 274 278 281 284 284 283 282 282 282 282 283 283
265 266 267 267 268 268 269 270 271 271 272 272 273 273 274 274 275 275 276 276 277 278 279 279 280 281 282 283 284 285 285 286 287 287 288 289 289 290 291 291 291 292 292 292 293 293 294 294 294 295 295 295 296 296 296 296 297 297 297 297 296 295 294 292 289 286 282 275 267 262 261 262 264 267 270 273 277 280 281 281 281 280 280 281 281 282
265 266 267 268 268 269 269 270 271 271 271 272 272 273 273 274 274 275 276 276 277 278 279 280 281 282 282 283 284 284 285 286 286 287 288 288 288 289 290 290 290 290 291 291 291 292 292 293 293 293 294 294 294 294 295 295 296 296 296 296 295 294 292 290 288 285 281 275 268 261 258 258 260 263 266 269 273 276 278 278 278 278 278 278 279 280
265 266 267 267 268 269 269 270 270 271 271 271 272 272 273 274 274 275 276 277 277 278 279 280 281 282 282 283 283 284 285 285 286 286 286 287 287 288 289 289 289 289 289 290 290 291 291 291 292 292 292 293 293 293 294 295 295 296 295 295 294 293 291 289 287 285 281 277 271 264 260 258 259 261 264 268 271 273 275 275 275 275 275 276 277 278
265 265 266 267 267 268 269 269 270 270 271 271 272 272 273 274 274 275 276 277 277 278 279 280 280 281 281 282 282 283 284 284 285 285 285 285 286 286 287 287 288 288 288 288 289 289 290 290 291 291 291 291 292 293 293 294 295 295 295 294 294 292 291 289 286 284 282 278 273 269 265 262 262 263 265 267 270 271 272 272 272 273 273 274 275 277
264 265 265 266 267 267 268 269 269 270 270 271 272 272 273 273 274 275 275 276 277 277 278 279 279 279 280 281 281 282 282 283 283 283 283 284 284 285 286 286 286 286 287 287 288 288 289 289 290 290 290 291 292 292 293 294 295 295 294 294 293 291 289 288 286 284 282 279 276 272 269 266 265 265 267 268 269 269 269 269 270 270 272 273 274 276
264 265 265 266 266 267 268 268 269 270 270 271 271 272 273 273 274 274 275 275 276 276 277 277 278 278 279 280 280 281 281 282 282 282 283 283 283 284 285 285 285 286 286 287 287 288 288 289 289 290 290 291 292 293 294 294 295 294 294 293 291 290 288 286 285 283 282 279 277 274 271 269 268 268 268 268 268 267 267 267 268 269 271 272 273 275
264 265 265 266 266 267 267 268 268 269 270 270 271 272 272 273 273 274 274 275 275 276 276 277 277 278 278 279 279 280 281 281 282 282 282 283 283 283 284 284 285 285 286 286 287 288 288 289 289 290 290 291 292 293 293 294 294 293 292 291 289 288 286 285 284 282 281 279 277 275 273 271 270 269 269 268 267 267 266 266 267 268 270 271 272 274
264 265 265 266 266 267 267 267 268 269 269 270 270 271 272 272 273 273 274 275 275 276 276 276 277 277 278 279 279 280 280 281 281 282 282 282 282 283 283 284 284 285 285 286 287 287 288 288 289 289 290 291 291 292 293 293 293 292 291 289 287 286 284 283 283 282 280 279 277 275 273 272 271 270 269 268 268 267 267 267 268 268 270 271 272 273
264 265 265 265 266 266 267 267 268 268 269 270 270 271 272 272 273 273 274 275 275 276 276 276 277 277 278 278 279 280 280 281 281 281 282 282 282 282 283 284 284 285 285 286 286 287 287 287 288 289 289 290 290 291 291 291 291 291 289 288 286 284 283 282 282 281 280 279 277 276 274 273 271 270 269 269 269 268 268 268 269 269 270 270 271 272
264 264 265 265 266 266 267 267 268 268 269 270 270 271 272 272 273 273 274 275 275 275 276 276 277 277 278 278 279 279 280 280 281 281 281 281 282 282 283 283 284 284 285 285 285 286 286 287 287 288 289 289 289 290 290 290 290 289 288 286 284 283 282 281 281 280 280 279 278 277 276 274 272 271 270 269 269 269 269 269 269 270 270 270 270 271
264 264 265 265 266 267 267 268 268 269 269 270 271 271 272 272 273 273 274 274 275 275 276 276 277 277 278 278 278 279 279 280 280 281 281 281 281 282 283 283 283 284 284 285 285 285 286 286 287 287 288 288 289 289 289 289 289 288 287 285 283 281 280 280 280 280 279 279 278 278 277 276 274 273 272 271 270 269 269 269 269 269 269 269 270 270
265 265 265 266 267 267 268 268 269 269 270 270 271 271 272 272 273 273 274 274 274 275 275 276 276 277 277 277 278 278 279 279 280 280 281 281 281 282 282 283 283 284 284 284 284 285 285 286 287 287 287 288 288 288 288 288 288 287 286 284 282 280 279 279 279 279 279 279 279 278 277 277 276 275 274 273 272 270 269 269 269 269 269 269 269 270
265 266 266 267 267 267 268 268 269 269 270 270 270 271 271 272 272 273 273 274 274 274 275 275 276 276 277 277 277 278 278 279 279 280 280 281 281 282 282 282 283 283 283 284 284 284 285 286 286 287 287 287 287 287 287 287 287 286 285 283 281 279 278 278 278 279 279 279 279 279 278 278 278 277 276 275 274 272 271 270 269 269 269 269 269 270
265 266 266 267 267 268 268 268 269 269 269 270 270 271 271 271 272 272 273 273 274 274 274 275 275 276 276 277 277 277 278 278 279 280 280 280 281 281 282 282 282 283 283 283 284 284 285 285 286 286 286 286 286 286 286 286 286 285 284 282 280 279 278 278 278 278 279 279 279 279 279 279 279 278 278 277 276 275 273 272 271 270 270 270 271 272
265 266 266 266 267 267 268 268 268 269 269 270 270 270 271 271 272 272 272 273 273 274 274 275 275 275 276 276 277 277 278 278 279 279 280 280 281 281 282 282 282 282 283 283 284 284 285 285 285 286 286 286 286 286 286 285 285 284 283 281 280 278 278 277 278 278 279 279 279 280 280 280 280 280 279 279 278 277 276 275 274 273 272 272 273 274
265 265 266 266 267 267 267 268 268 269 269 269 270 270 271 271 271 272 272 273 273 274 274 275 275 275 276 276 277 277 278 278 279 279 280 280 281 281 281 282 282 282 283 283 283 284 284 285 285 285 285 286 286 285 285 284 284 283 282 281 279 278 278 277 278 278 279 279 280 280 281 281 281 281 281 281 280 279 278 277 276 275 274 274 274 274
265 266 266 266 267 267 267 268 268 268 269 269 270 270 270 271 271 272 272 273 273 274 274 275 275 276 276 276 277 277 278 278 279 279 280 280 280 281 281 281 282 282 282 282 283 283 284 284 284 284 284 284 284 284 284 284 283 282 281 280 279 278 278 278 278 278 279 279 280 280 281 281 282 282 282 282 282 280 279 277 276 275 274 273 272 272
266 266 267 267 267 267 268 268 268 269 269 269 270 270 271 271 271 272 272 273 273 274 274 275 275 276 276 276 277 277 278 278 279 279 279 280 280 280 280 281 281 281 281 282 282 282 283 283 283 283 283 283 283 283 283 283 282 282 281 280 279 278 278 278 278 278 278 279 280 280 281 281 282 282 283 282 281 280 278 277 275 274 272 271 270 269
267 268 268 268 268 268 268 268 269 269 269 270 270 270 270 271 271 272 272 272 273 273 274 274 275 275 276 276 277 277 277 278 278 278 279 279 279 279 279 280 280 280 280 281 281 281 281 282 282 282 282 282 282 282 282 282 281 281 280 280 279 278 278 278 278 278 278 279 279 280 280 281 282 282 282 282 281 279 278 276 274 272 270 269 268 267
268 268 269 269 269 269 269 269 269 269 270 270 270 270 270 271 271 271 272 272 273 273 274 274 275 275 275 276 276 276 277 277 277 277 278 278 278 278 278 278 279 279 279 279 280 280 280 280 281 281 281 281 281 281 281 281 281 280 280 279 279 278 278 278 278 278 278 279 279 280 280 281 281 281 281 281 280 279 277 276 274 272 270 268 267 265
268 268 269 269 269 269 269 269 269 269 269 270 270 270 270 270 271 271 271 272 272 273 273 273 274 274 274 275 275 275 276 276 276 276 277 277 277 277 277 277 278 278 278 278 278 279 279 279 279 279 280 280 280 280 280 280 280 280 279 279 279 278 278 278 278 278 278 278 279 279 280 280 281 281 281 280 279 278 277 276 275 273 271 269 268 266
268 268 268 268 268 268 268 269 269 269 269 269 269 270 270 270 270 271 271 271 272 272 272 273 273 273 274 274 274 274 275 275 275 275 275 275 276 276 276 276 276 277 277 277 277 277 278 278 278 278 278 279 279 279 279 279 279 279 278 278 278 278 278 278 278 278 278 278 278 278 279 280 280 280 280 280 279 278 277 276 275 273 272 271 270 269
267 267 267 267 267 267 267 268 268 268 268 268 269 269 269 269 270 270 270 270 271 271 271 271 272 272 272 273 273 273 273 274 274 274 274 274 274 274 275 275 275 275 276 276 276 276 277 277 277 277 277 277 278 278 278 278 278 278 278 278 278 277 277 277 277 277 277 277 278 278 278 279 279 279 279 279 278 278 277 276 275 274 273 272 271 270
266 266 266 266 266 266 266 266 267 267 267 267 268 268 268 268 268 269 269 269 269 270 270 270 270 271 271 271 272 272 272 272 273 273 273 273 273 273 274 274 274 274 274 275 275 275 276 276 276 276 276 276 277 277 277 277 277 277 277 277 277 277 277 277 277 277 277 277 277 277 277 278 278 278 278 278 278 277 277 276 275 274 273 272 271 270
266 266 265 265 265 265 265 265 265 266 266 266 266 267 267 267 267 267 268 268 268 268 269 269 269 269 270 270 270 271 271 271 271 271 272 272 272 272 272 272 273 273 273 274 274 274 274 275 275 275 275 276 276 276 276 276 276 276 277 276 276 276 276 276 276 276 276 276 277 277 277 277 277 277 277 277 276 276 276 276 275 274 273 272 271 271
266 266 266 265 265 265 265 265 265 265 265 265 265 265 266 266 266 266 266 266 267 267 267 267 268 268 268 269 269 269 269 270 270 270 270 270 271 271 271 271 271 272 272 272 273 273 273 273 274 274 275 275 275 275 275 276 276 276 276 276 276 276 276 276 276 276 276 276 277 277 277 277 277 277 276 276 276 276 276 275 275 274 273 272 271 271
267 267 266 266 266 265 265 265 265 265 264 264 264 264 265 265 265 265 265 265 265 265 266 266 266 266 267 267 267 268 268 268 269 269 269 269 269 270 270 270 270 271 271 271 272 272 272 272 273 273 273 274 274 274 275 275 275 275 276 276 276 276 276 276 277 277 277 277 278 278 279 279 278 277 277 276 276 276 276 275 275 274 273 272 272 271
269 268 268 267 267 266 266 265 265 265 264 264 264 264 264 264 264 264 264 264 264 264 264 265 265 265 265 266 266 266 267 267 267 268 268 268 268 268 268 269 269 269 270 270 270 271 271 272 272 272 272 272 273 273 274 274 274 275 275 275 275 276 276 276 276 277 277 278 278 279 280 280 280 279 278 278 277 277 276 276 275 275 274 273 272 272
270 269 269 268 268 267 266 266 266 265 265 265 264 264 264 264 263 263 263 263 263 263 263 263 264 264 264 264 265 265 265 266 266 266 266 267 267 267 267 267 268 268 268 269 269 270 270 270 271 271 271 271 271 272 273 273 273 273 274 274 274 275 275 275 276 276 276 277 278 279 280 280 281 281 280 279 279 278 277 277 276 276 275 274 273 273
270 269 269 269 268 268 267 266 266 266 265 265 265 264 264 264 263 263 263 263 262 262 262 262 262 263 263 263 263 264 264 264 264 265 265 265 265 266 266 266 266 267 267 268 268 268 269 269 269 270 270 270 270 271 271 272 272 272 273 273 273 273 273 274 274 274 275 275 276 277 278 279 280 280 280 280 279 279 279 278 277 277 276 275 274 273
269 269 269 268 268 268 267 267 266 266 265 265 265 264 264 264 263 263 263 262 262 262 262 262 262 262 262 262 262 262 263 263 263 263 264 264 264 264 264 265 265 265 266 266 267 267 267 268 268 269 269 270 270 270 270 270 271 271 271 271 272 272 272 272 273 273 273 274 274 275 276 277 278 278 279 279 279 279 279 278 278 277 277 276 275 274
Height
10619 10618 10618 10618 10617 10616 10615 10616 10617 10617 10616 10617 10618 10618 10619 10620 10620 10621 10621 10621 10621 10621 10621 10621 10621 10621 10621 10620 10620 10620 10619 10619 10618 10619 10619 10619 10619 10618 10618 10618 10618 10617 10616 10616 10615 10615 10614 10613 10612 10611 10611 10610 10610 10610 10609 10609 10608 10605 10603 10601 10600 10598 10598 10597 10596 10595 10592 10590 10589 10587 10585 10584 10583 10582 10581 10579 10577 10575 10574 10573 10571 10570 10570 10569 10568 10568
10613 10613 10613 10613 10612 10611 10610 10610 10611 10611 10611 10611 10612 10613 10614 10614 10615 10615 10615 10615 10615 10616 10616 10616 10616 10615 10615 10615 10614 10614 10613 10613 10613 10614 10614 10614 10614 10614 10614 10613 10613 10613 10613 10612 10611 10611 10610 10610 10609 10608 10607 10606 10606 10606 10606 10606 10605 10601 10599 10597 10596 10595 10593 10593 10592 10591 10588 10586 10585 10583 10581 10580 10579 10578 10576 10575 10573 10571 10570 10569 10568 10567 10566 10565 10565 10564
10608 10607 10607 10607 10606 10606 10605 10604 10605 10605 10606 10606 10606 10607 10608 10608 10608 10608 10609 10609 10609 10609 10609 10610 10610 10610 10609 10609 10609 10608 10608 10608 10608 10609 10609 10609 10609 10609 10610 10609 10609 10609 10608 10608 10608 10608 10607 10606 10606 10605 10604 10603 10603 10603 10603 10603 10601 10598 10595 10593 10591 10590 10589 10588 10588 10586 10584 10582 10580 10578 10576 10575 10574 10573 10572 10571 10569 10568 10566 10565 10564 10563 10562 10562 10561 10560
10603 10602 10601 10601 10600 10600 10599 10599 10598 10599 10600 10600 10600 10601 10601 10601 10601 10602 10602 10603 10603 10603 10603 10603 10603 10603 10604 10604 10603 10603 10603 10603 10603 10604 10604 10604 10605 10605 10605 10606 10606 10606 10606 10606 10605 10605 10605 10604 10603 10602 10601 10601 10600 10600 10600 10599 10596 10594 10591 10589 10587 10585 10585 10584 10583 10582 10580 10578 10576 10574 10572 10571 10570 10568 10568 10566 10565 10563 10562 10561 10560 10560 10559 10558 10558 10557
10597 10596 10595 10595 10594 10593 10593 10593 10593 10593 10593 10593 10593 10593 10594 10595 10595 10596 10596 10596 10596 10596 10597 10597 10598 10598 10598 10599 10598 10598 10598 10598 10599 10599 10600 10600 10600 10601 10602 10603 10603 10603 10603 10603 10603 10603 10602 10601 10600 10600 10599 10598 10597 10596 10596 10595 10592 10590 10587 10585 10583 10581 10580 10580 10579 10578 10576 10574 10572 10570 10568 10566 10565 10564 10563 10562 10561 10559 10558 10557 10556 10555 10555 10555 10554 10553
10591 10591 10590 10589 10588 10587 10586 10586 10586 10586 10586 10585 10586 10586 10587 10588 10589 10590 10590 10590 10591 10591 10591 10591 10592 10593 10593 10594 10594 10594 10594 10595 10595 10595 10596 10596 10597 10598 10598 10599 10600 10600 10600 10600 10600 10599 10598 10598 10596 10596 10595 10594 10593 10593 10592 10590 10588 10585 10583 10581 10578 10576 10575 10575 10574 10573 10571 10570 10568 10566 10564 10562 10560 10560 10559 10558 10556 10555 10554 10553 10552 10551 10551 10551 10550 10550
10585 10585 10585 10584 10583 10582 10581 10581 10580 10580 10580 10580 10580 10580 10581 10582 10583 10583 10583 10584 10585 10585 10585 10586 10586 10587 10588 10588 10589 10589 10590 10590 10590 10591 10591 10591 10592 10593 10593 10594 10595 10595 10595 10595 10594 10594 10593 10592 10591 10591 10590 10590 10589 10588 10587 10585 10583 10581 10578 10576 10574 10572 10571 10570 10568 10567 10566 10565 10563 10561 10560 10558 10556 10555 10555 10553 10553 10551 10550 10549 10548 10548 10547 10547 10546 10546
10579 10578 10578 10578 10578 10576 10576 10575 10575 10575 10575 10574 10574 10575 10575 10576 10576 10577 10578 10578 10578 10579 10580 10580 10580 10581 10581 10582 10583 10583 10583 10583 10584 10584 10585 10585 10585 10586 10586 10587 10588 10588 10588 10588 10588 10588 10587 10586 10586 10585 10584 10583 10583 10583 10581 10580 10578 10576 10573 10571 10569 10567 10566 10565 10563 10562 10561 10560 10558 10557 10555 10553 10551 10551 10550 10550 10548 10547 10546 10545 10544 10544 10543 10543 10543 10543
10573 10572 10571 10572 10572 10571 10570 10569 10569 10569 10569 10569 10569 10569 10569 10570 10570 10570 10571 10571 10572 10573 10573 10573 10573 10573 10574 10575 10575 10576 10576 10576 10576 10576 10577 10577 10578 10578 10580 10580 10581 10581 10581 10581 10581 10581 10581 10580 10580 10579 10578 10578 10578 10577 10576 10574 10572 10570 10568 10566 10564 10563 10561 10560 10558 10557 10556 10555 10554 10552 10550 10548 10547 10546 10546 10546 10545 10543 10542 10541 10541 10540 10540 10540 10540 10540
10566 10566 10565 10565 10565 10565 10565 10564 10563 10562 10563 10563 10563 10563 10564 10564 10564 10564 10565 10565 10565 10566 10567 10568 10567 10567 10567 10567 10568 10568 10568 10569 10569 10569 10570 10570 10570 10571 10572 10573 10574 10575 10575 10575 10575 10575 10575 10575 10574 10573 10573 10573 10572 10571 10570 10568 10566 10565 10563 10560 10559 10558 10556 10555 10553 10552 10551 10550 10549 10548 10546 10544 10542 10542 10542 10541 10541 10540 10538 10538 10537 10536 10536 10536 10536 10536
10558 10559 10560 10559 10559 10559 10560 10558 10557 10556 10557 10557 10556 10556 10557 10558 10558 10558 10558 10558 10558 10560 10560 10560 10561 10561 10560 10560 10560 10561 10561 10561 10561 10561 10562 10563 10563 10564 10565 10566 10567 10568 10568 10568 10568 10568 10568 10568 10568 10567 10566 10566 10566 10565 10563 10561 10560 10558 10556 10555 10553 10553 10551 10550 10549 10547 10546 10546 10545 10543 10541 10540 10538 10538 10538 10538 10537 10536 10535 10534 10533 10532 10532 10532 10532 10533
10551 10551 10552 10553 10553 10553 10553 10552 10551 10551 10551 10551 10551 10550 10550 10550 10551 10553 10553 10552 10552 10553 10553 10553 10553 10553 10554 10553 10553 10553 10554 10554 10554 10554 10555 10555 10556 10556 10557 10558 10559 10560 10560 10560 10561 10561 10561 10561 10561 10560 10560 10560 10559 10558 10556 10555 10553 10552 10551 10550 10548 10547 10546 10546 10544 10543 10541 10541 10540 10540 10538 10535 10534 10533 10533 10533 10533 10532 10531 10530 10529 10528 10528 10528 10528 10528
10543 10544 10545 10545 10546 10546 10546 10546 10546 10545 10545 10545 10545 10544 10543 10544 10545 10546 10547 10546 10546 10546 10546 10546 10546 10546 10546 10546 10546 10546 10546 10546 10547 10547 10548 10548 10548 10548 10550 10550 10550 10551 10552 10553 10553 10553 10553 10554 10553 10553 10553 10553 10552 10551 10550 10549 10548 10546 10545 10544 10543 10542 10541 10540 10540 10538 10537 10536 10536 10535 10533 10531 10530 10529 10530 10530 10529 10528 10526 10526 10525 10524 10523 10523 10523 10525
10535 10536 10538 10538 10538 10538 10539 10539 10539 10538 10538 10538 10538 10538 10538 10538 10539 10540 10540 10540 10539 10539 10540 10540 10540 10539 10539 10539 10540 10540 10540 10540 10540 10540 10540 10540 10541 10541 10542 10542 10542 10543 10544 10545 10545 10545 10546 10546 10546 10546 10546 10546 10545 10545 10543 10543 10541 10540 10540 10538 10538 10536 10536 10535 10534 10533 10533 10532 10531 10530 10528 10526 10525 10524 10525 10525 10525 10524 10523 10521 10521 10520 10519 10518 10519 10520
10528 10530 10531 10531 10531 10531 10531 10531 10531 10531 10531 10531 10531 10532 10532 10532 10533 10533 10534 10533 10533 10533 10533 10533 10533 10532 10532 10532 10533 10534 10534 10534 10534 10533 10533 10533 10533 10534 10535 10535 10535 10535 10536 10536 10536 10536 10537 10538 10538 10538 10538 10538 10538 10537 10537 10536 10536 10535 10534 10533 10532 10531 10530 10530 10528 10528 10528 10527 10526 10525 10523 10521 10519 10518 10519 10520 10521 10520 10519 10518 10517 10516 10515 10515 10515 10516
10521 10523 10523 10523 10523 10523 10523 10523 10523 10523 10523 10523 10525 10525 10525 10525 10525 10526 10527 10527 10526 10526 10527 10526 10526 10525 10525 10525 10526 10527 10528 10528 10527 10527 10527 10527 10526 10527 10528 10528 10527 10526 10527 10528 10528 10528 10529 10529 10529 10529 10529 10530 10530 10530 10530 10530 10529 10529 10528 10528 10526 10526 10525 10524 10523 10523 10522 10522 10521 10520 10518 10516 10514 10513 10513 10515 10516 10516 10515 10515 10513 10512 10511 10510 10510 10511
10513 10515 10515 10515 10515 10515 10515 10515 10515 10515 10515 10516 10516 10517 10518 10518 10518 10519 10520 10520 10520 10520 10520 10520 10520 10520 10518 10518 10518 10520 10521 10522 10521 10520 10520 10520 10520 10520 10521 10521 10520 10520 10520 10521 10521 10521 10521 10522 10522 10522 10522 10522 10523 10523 10523 10523 10523 10523 10523 10522 10521 10520 10520 10518 10518 10518 10518 10518 10518 10516 10515 10512 10510 10508 10508 10509 10511 10512 10511 10511 10510 10508 10508 10506 10506 10506
10505 10506 10506 10507 10507 10506 10506 10507 10507 10506 10507 10507 10508 10508 10509 10510 10511 10511 10512 10512 10513 10513 10512 10513 10513 10513 10513 10512 10511 10511 10513 10515 10515 10513 10513 10513 10513 10513 10515 10515 10514 10513 10513 10514 10515 10515 10515 10516 10516 10516 10516 10516 10516 10517 10517 10517 10517 10517 10516 10516 10516 10515 10515 10514 10514 10515 10515 10516 10515 10513 10511 10510 10507 10505 10504 10504 10506 10508 10508 10506 10506 10505 10504 10503 10501 10501
10496 10497 10498 10498 10498 10498 10498 10499 10499 10498 10498 10498 10499 10500 10501 10501 10502 10503 10504 10505 10505 10505 10505 10505 10506 10506 10506 10506 10505 10505 10507 10508 10508 10507 10507 10507 10507 10507 10508 10508 10508 10506 10506 10507 10508 10509 10510 10510 10510 10511 10511 10511 10511 10511 10511 10511 10511 10511 10511 10511 10510 10510 10510 10509 10509 10510 10511 10512 10512 10511 10510 10507 10505 10503 10501 10500 10501 10503 10503 10503 10502 10501 10500 10499 10497 10497
10488 10488 10490 10490 10490 10490 10490 10490 10490 10490 10490 10490 10491 10492 10493 10493 10494 10495 10496 10496 10496 10497 10498 10498 10499 10499 10499 10500 10500 10499 10500 10501 10502 10501 10500 10501 10501 10501 10502 10503 10502 10501 10501 10501 10502 10503 10505 10505 10505 10505 10506 10506 10506 10506 10506 10506 10506 10506 10506 10506 10505 10505 10504 10503 10503 10504 10505 10506 10507 10507 10506 10505 10503 10500 10498 10498 10498 10499 10500 10499 10498 10497 10496 10495 10493 10492
10480 10480 10480 10481 10482 10483 10482 10481 10481 10481 10482 10483 10484 10485 10485 10485 10486 10486 10487 10488 10489 10490 10490 10491 10491 10492 10493 10493 10493 10493 10493 10495 10495 10495 10494 10495 10495 10495 10496 10496 10496 10495 10495 10495 10496 10498 10499 10499 10500 10500 10501 10501 10501 10501 10501 10501 10501 10501 10501 10501 10500 10499 10498 10498 10498 10498 10498 10500 10501 10501 10502 10501 10500 10498 10496 10495 10495 10495 10496 10495 10495 10493 10492 10490 10489 10488
10472 10472 10472 10473 10474 10475 10474 10473 10473 10474 10474 10475 10476 10476 10476 10477 10478 10479 10479 10480 10482 10483 10483 10483 10484 10485 10486 10486 10486 10485 10486 10488 10488 10488 10488 10488 10488 10487 10489 10491 10491 10490 10489 10490 10490 10492 10493 10494 10495 10495 10495 10496 10496 10496 10496 10496 10496 10496 10496 10495 10494 10493 10493 10492 10492 10492 10492 10493 10494 10495 10496 10496 10495 10494 10492 10491 10491 10491 10491 10491 10490 10490 10488 10486 10485 10485
10465 10465 10465 10465 10466 10466 10466 10466 10466 10466 10466 10467 10468 10468 10468 10470 10471 10471 10472 10473 10475 10475 10476 10476 10477 10478 10478 10479 10479 10479 10480 10480 10481 10482 10482 10482 10481 10481 10483 10485 10485 10484 10483 10484 10485 10486 10488 10488 10490 10490 10491 10491 10490 10491 10491 10491 10491 10491 10490 10489 10488 10488 10487 10486 10486 10486 10486 10486 10488 10488 10489 10490 10489 10489 10488 10488 10488 10488 10487 10487 10486 10485 10483 10482 10481 10481
10457 10457 10457 10458 10458 10458 10458 10458 10458 10458 10458 10460 10460 10460 10461 10462 10463 10464 10465 10466 10468 10468 10469 10470 10470 10470 10470 10471 10472 10473 10473 10474 10475 10476 10476 10476 10475 10475 10476 10479 10480 10479 10478 10478 10480 10481 10482 10483 10484 10485 10486 10485 10485 10485 10485 10485 10485 10485 10483 10483 10482 10481 10481 10481 10481 10481 10481 10481 10481 10482 10483 10483 10483 10483 10483 10483 10483 10483 10483 10483 10481 10480 10479 10478 10478 10478
10448 10449 10450 10450 10450 10450 10451 10451 10451 10451 10451 10452 10452 10453 10453 10455 10456 10457 10459 10460 10461 10462 10463 10464 10464 10463 10463 10465 10466 10466 10466 10467 10469 10470 10470 10470 10469 10469 10470 10473 10474 10473 10472 10472 10474 10476 10477 10477 10478 10479 10480 10480 10480 10480 10479 10479 10478 10478 10477 10476 10476 10476 10475 10475 10475 10475 10476 10476 10476 10476 10477 10478 10478 10478 10478 10478 10478 10478 10478 10478 10477 10476 10475 10474 10474 10474
10438 10440 10441 10441 10442 10443 10443 10443 10443 10443 10443 10444 10445 10445 10446 10447 10448 10450 10452 10453 10455 10455 10456 10457 10457 10456 10457 10459 10460 10460 10459 10461 10463 10464 10465 10465 10464 10463 10463 10465 10467 10467 10466 10466 10467 10469 10471 10471 10471 10472 10473 10473 10473 10473 10473 10472 10471 10471 10471 10471 10470 10470 10470 10470 10470 10470 10470 10471 10471 10471 10472 10472 10472 10473 10473 10473 10473 10473 10473 10473 10472 10471 10470 10470 10470 10470
10429 10431 10432 10433 10434 10434 10435 10435 10435 10435 10435 10435 10436 10436 10438 10440 10441 10443 10443 10445 10446 10448 10450 10450 10450 10450 10451 10452 10453 10452 10453 10455 10456 10456 10457 10458 10458 10456 10456 10458 10460 10460 10459 10459 10460 10461 10463 10464 10464 10465 10466 10466 10466 10466 10466 10466 10466 10465 10465 10465 10465 10465 10465 10465 10465 10465 10465 10466 10466 10466 10466 10467 10467 10468 10468 10468 10468 10468 10468 10468 10467 10466 10466 10466 10466 10466
10420 10421 10423 10424 10425 10425 10426 10426 10426 10427 10427 10428 10428 10429 10430 10432 10434 10435 10435 10435 10438 10441 10443 10442 10442 10443 10444 10445 10444 10445 10446 10448 10448 10448 10450 10451 10451 10449 10448 10451 10453 10453 10453 10452 10453 10455 10456 10457 10458 10459 10460 10460 10460 10460 10460 10460 10460 10460 10460 10460 10460 10460 10460 10460 10460 10461 10461 10461 10461 10461 10462 10462 10462 10463 10463 10463 10463 10463 10463 10463 10463 10462 10462 10462 10462 10462
10410 10411 10413 10414 10415 10416 10416 10417 10418 10419 10420 10420 10420 10421 10423 10425 10426 10427 10426 10428 10430 10433 10434 10433 10434 10435 10436 10436 10437 10438 10439 10440 10440 10441 10442 10443 10442 10441 10441 10445 10446 10446 10446 10446 10446 10447 10449 10451 10453 10454 10454 10455 10455 10455 10455 10455 10455 10455 10455 10455 10455 10455 10455 10455 10456 10456 10456 10456 10456 10456 10457 10457 10458 10458 10458 10458 10458 10458 10458 10458 10458 10458 10458 10458 10458 10458
10400 10401 10402 10404 10405 10406 10407 10408 10410 10410 10411 10412 10413 10414 10415 10416 10418 10419 10420 10420 10422 10424 10425 10425 10425 10427 10428 10430 10430 10430 10430 10430 10431 10433 10435 10435 10434 10433 10435 10438 10438 10438 10440 10440 10441 10441 10441 10444 10446 10448 10449 10449 10449 10449 10449 10450 10450 10450 10450 10450 10450 10450 10450 10451 10451 10451 10451 10451 10452 10452 10452 10453 10453 10453 10453 10453 10453 10453 10453 10453 10453 10453 10453 10453 10453 10453
10389 10391 10393 10394 10395 10396 10398 10400 10401 10401 10403 10404 10405 10406 10407 10408 10410 10411 10412 10413 10414 10415 10416 10416 10417 10418 10420 10422 10423 10423 10421 10421 10423 10426 10428 10428 10426 10426 10428 10431 10431 10431 10432 10434 10435 10435 10435 10436 10440 10442 10443 10443 10443 10443 10443 10444 10444 10445 10445 10445 10445 10445 10446 10446 10446 10447 10447 10447 10448 10448 10448 10448 10448 10448 10449 10449 10449 10449 10449 10449 10449 10449 10449 10449 10449 10448
10379 10381 10383 10385 10386 10388 10389 10390 10391 10393 10394 10395 10396 10398 10399 10400 10401 10402 10403 10404 10405 10406 10406 10407 10408 10410 10411 10413 10415 10415 10414 10414 10415 10418 10420 10420 10419 10418 10421 10423 10424 10424 10425 10427 10428 10428 10428 10430 10431 10435 10436 10436 10436 10436 10437 10438 10438 10439 10440 10440 10440 10440 10441 10441 10442 10443 10443 10443 10443 10443 10443 10443 10444 10444 10444 10444 10444 10444 10444 10444 10444 10444 10444 10444 10444 10443
10370 10372 10373 10375 10376 10378 10380 10381 10382 10383 10385 10386 10388 10389 10390 10391 10392 10393 10394 10395 10396 10397 10398 10398 10400 10401 10402 10404 10405 10406 10406 10407 10408 10410 10411 10412 10412 10412 10413 10415 10416 10416 10418 10420 10421 10421 10423 10423 10425 10427 10429 10430 10430 10430 10431 10432 10433 10434 10435 10435 10435 10435 10436 10437 10438 10438 10438 10438 10439 10439 10439 10440 10440 10440 10440 10440 10440 10440 10439 10439 10439 10439 10439 10439 10439 10439
10361 10363 10364 10365 10366 10368 10370 10371 10372 10374 10375 10376 10378 10380 10381 10382 10383 10384 10385 10386 10386 10388 10388 10390 10391 10392 10393 10395 10396 10397 10398 10400 10401 10402 10403 10405 10405 10405 10406 10408 10408 10409 10411 10412 10413 10415 10416 10417 10418 10420 10421 10422 10423 10425 10425 10426 10427 10428 10429 10430 10430 10430 10431 10432 10433 10433 10433 10434 10434 10435 10435 10435 10435 10435 10435 10435 10435 10435 10435 10434 10434 10434 10434 10434 10434 10434
10352 10353 10354 10355 10356 10358 10360 10361 10362 10364 10365 10367 10368 10370 10371 10373 10373 10374 10375 10376 10377 10378 10380 10380 10382 10383 10385 10386 10388 10389 10390 10391 10393 10394 10395 10396 10396 10398 10398 10400 10400 10401 10403 10404 10405 10408 10409 10410 10411 10413 10414 10415 10416 10418 10420 10421 10421 10423 10423 10424 10425 10425 10425 10426 10428 10428 10428 10429 10429 10430 10430 10430 10431 10431 10431 10431 10431 10430 10430 10430 10429 10429 10429 10429 10429 10429
10342 10343 10345 10346 10347 10349 10350 10351 10352 10353 10355 10357 10359 10360 10361 10363 10363 10364 10365 10366 10368 10369 10370 10371 10373 10375 10376 10378 10379 10381 10381 10383 10385 10386 10386 10388 10389 10390 10391 10391 10392 10394 10396 10396 10398 10400 10401 10403 10404 10406 10408 10408 10410 10411 10413 10415 10416 10417 10418 10418 10420 10420 10420 10421 10422 10423 10423 10423 10424 10424 10425 10425 10426 10426 10426 10426 10426 10425 10425 10425 10424 10424 10424 10424 10424 10424
10331 10333 10334 10336 10337 10339 10340 10341 10341 10343 10345 10347 10349 10350 10351 10353 10353 10355 10355 10356 10358 10360 10361 10363 10364 10366 10367 10369 10370 10372 10373 10375 10376 10378 10378 10380 10381 10383 10383 10383 10384 10386 10388 10389 10390 10393 10395 10396 10397 10399 10401 10402 10403 10404 10405 10408 10410 10411 10411 10413 10414 10415 10415 10416 10417 10418 10418 10418 10418 10419 10420 10420 10420 10421 10420 10420 10420 10420 10420 10420 10419 10419 10419 10419 10420 10420
10320 10321 10323 10325 10326 10328 10330 10331 10331 10333 10335 10337 10338 10340 10341 10342 10343 10345 10345 10347 10349 10350 10352 10353 10355 10357 10358 10360 10361 10363 10365 10366 10368 10369 10370 10371 10373 10375 10376 10376 10376 10378 10380 10382 10383 10385 10388 10389 10390 10392 10394 10395 10396 10398 10399 10401 10403 10404 10405 10406 10408 10410 10410 10411 10412 10413 10413 10413 10414 10414 10415 10415 10416 10416 10416 10416 10415 10415 10415 10415 10415 10415 10415 10415 10415 10416
10308 10310 10312 10314 10315 10317 10319 10320 10321 10322 10324 10326 10328 10330 10331 10332 10333 10335 10336 10338 10340 10341 10343 10345 10346 10348 10350 10351 10353 10355 10356 10358 10359 10360 10362 10364 10366 10367 10368 10369 10370 10371 10373 10375 10377 10378 10380 10381 10383 10385 10386 10389 10390 10391 10393 10395 10396 10398 10399 10401 10402 10403 10404 10405 10406 10407 10408 10408 10409 10410 10410 10411 10411 10411 10411 10411 10411 10411 10411 10410 10411 10411 10411 10411 10412 10412
10296 10299 10301 10302 10304 10305 10307 10308 10310 10311 10313 10316 10318 10320 10321 10322 10323 10325 10326 10328 10331 10333 10335 10336 10338 10340 10341 10342 10344 10346 10348 10350 10351 10353 10355 10356 10358 10360 10361 10361 10362 10363 10366 10368 10370 10371 10373 10375 10376 10378 10380 10382 10383 10385 10386 10388 10390 10391 10393 10395 10396 10396 10398 10400 10401 10401 10403 10403 10404 10405 10405 10406 10406 10407 10407 10407 10407 10407 10406 10406 10406 10407 10407 10408 10408 10408
10287 10289 10290 10291 10293 10295 10296 10298 10299 10301 10303 10305 10307 10310 10311 10313 10314 10316 10318 10320 10321 10323 10325 10328 10330 10331 10331 10333 10335 10337 10340 10341 10343 10345 10347 10349 10351 10352 10353 10355 10355 10356 10358 10361 10362 10364 10366 10368 10370 10372 10374 10376 10377 10378 10380 10381 10383 10385 10387 10388 10388 10390 10392 10393 10395 10396 10397 10398 10399 10400 10401 10401 10402 10403 10403 10403 10403 10403 10403 10403 10403 10403 10403 10403 10403 10403
10278 10280 10280 10281 10283 10285 10286 10287 10288 10290 10293 10295 10297 10299 10301 10303 10305 10307 10309 10311 10312 10314 10316 10319 10321 10322 10323 10324 10326 10328 10331 10333 10336 10338 10340 10341 10343 10345 10346 10347 10348 10350 10351 10353 10355 10356 10358 10361 10363 10365 10366 10369 10371 10373 10374 10375 10376 10378 10380 10381 10383 10385 10386 10387 10388 10390 10391 10392 10393 10395 10396 10396 10397 10398 10398 10398 10398 10398 10399 10399 10399 10399 10398 10398 10398 10398
10268 10270 10271 10272 10273 10275 10276 10277 10279 10280 10282 10285 10287 10289 10291 10294 10296 10299 10300 10301 10303 10305 10307 10310 10312 10313 10315 10315 10316 10319 10323 10325 10328 10330 10332 10334 10336 10338 10339 10340 10341 10342 10345 10346 10348 10349 10351 10354 10356 10358 10360 10362 10365 10367 10367 10368 10370 10372 10374 10375 10377 10379 10380 10380 10381 10384 10386 10386 10388 10389 10390 10391 10393 10393 10394 10394 10394 10394 10394 10395 10395 10394 10394 10394 10394 10394
10257 10259 10261 10263 10265 10266 10267 10268 10269 10271 10272 10275 10278 10280 10282 10285 10288 10290 10291 10293 10294 10296 10298 10301 10303 10305 10306 10307 10308 10311 10315 10317 10320 10322 10325 10326 10329 10331 10331 10332 10333 10335 10337 10339 10340 10341 10344 10346 10348 10350 10353 10356 10358 10360 10360 10361 10363 10365 10366 10368 10370 10372 10373 10373 10376 10378 10379 10380 10381 10383 10385 10386 10388 10389 10389 10390 10390 10390 10390 10390 10390 10390 10390 10390 10390 10389
10245 10248 10250 10252 10255 10256 10257 10258 10260 10261 10263 10266 10268 10271 10273 10276 10279 10281 10283 10284 10285 10287 10290 10292 10295 10297 10298 10298 10300 10303 10307 10310 10312 10315 10317 10319 10321 10323 10325 10325 10326 10327 10329 10331 10333 10335 10336 10338 10340 10343 10346 10348 10350 10351 10353 10355 10356 10358 10360 10362 10364 10366 10366 10368 10370 10371 10373 10374 10375 10377 10379 10381 10383 10384 10385 10385 10385 10385 10385 10385 10385 10385 10385 10385 10385 10385
10233 10235 10237 10239 10243 10245 10246 10248 10250 10251 10254 10257 10259 10261 10264 10266 10270 10273 10274 10275 10277 10279 10281 10283 10286 10289 10290 10290 10292 10296 10300 10301 10303 10306 10309 10311 10314 10316 10318 10318 10318 10320 10321 10323 10325 10327 10330 10331 10333 10335 10338 10341 10343 10344 10345 10347 10350 10351 10353 10355 10357 10359 10360 10362 10363 10365 10366 10367 10368 10370 10373 10375 10378 10379 10379 10379 10380 10380 10380 10381 10381 10381 10380 10380 10380 10380
10218 10221 10224 10227 10229 10233 10234 10236 10239 10241 10244 10246 10248 10251 10254 10258 10261 10263 10265 10266 10268 10270 10272 10275 10278 10280 10281 10281 10284 10288 10291 10293 10294 10297 10301 10303 10306 10308 10310 10311 10311 10313 10315 10316 10318 10320 10322 10324 10326 10329 10331 10334 10335 10337 10338 10340 10343 10344 10345 10347 10349 10351 10353 10354 10356 10357 10358 10360 10360 10362 10364 10368 10370 10371 10373 10373 10374 10375 10375 10376 10376 10376 10376 10376 10376 10376
10202 10204 10209 10213 10217 10220 10222 10224 10226 10229 10232 10234 10237 10240 10243 10247 10250 10253 10255 10256 10259 10261 10265 10266 10269 10271 10273 10275 10276 10280 10283 10285 10286 10289 10292 10295 10298 10300 10303 10304 10305 10306 10307 10309 10311 10313 10315 10317 10320 10322 10324 10326 10328 10330 10331 10333 10336 10337 10338 10340 10342 10344 10345 10346 10348 10350 10351 10352 10352 10353 10355 10358 10360 10363 10365 10366 10368 10368 10370 10370 10371 10371 10371 10371 10371 10371
10186 10189 10193 10198 10202 10205 10208 10210 10213 10216 10219 10222 10225 10228 10231 10235 10239 10241 10244 10246 10249 10252 10255 10258 10260 10263 10265 10266 10268 10271 10275 10277 10279 10281 10284 10287 10290 10293 10295 10296 10298 10299 10300 10302 10304 10306 10308 10310 10312 10315 10317 10320 10322 10323 10325 10326 10328 10330 10332 10333 10335 10337 10338 10340 10341 10343 10345 10346 10346 10346 10347 10349 10351 10354 10356 10359 10360 10361 10363 10364 10365 10365 10366 10366 10366 10366
10172 10174 10178 10182 10186 10190 10193 10196 10199 10203 10206 10209 10212 10215 10219 10223 10226 10229 10233 10236 10239 10242 10245 10248 10251 10254 10256 10258 10260 10263 10266 10269 10271 10273 10276 10279 10282 10285 10288 10290 10291 10292 10293 10295 10296 10298 10301 10303 10305 10306 10309 10313 10316 10318 10319 10320 10322 10324 10326 10327 10328 10330 10332 10333 10335 10337 10339 10340 10341 10341 10342 10343 10344 10346 10349 10351 10352 10353 10355 10356 10358 10359 10360 10360 10361 10361
10159 10162 10164 10168 10171 10175 10179 10183 10186 10189 10193 10196 10199 10203 10206 10209 10213 10216 10220 10224 10227 10231 10234 10238 10241 10245 10248 10250 10251 10254 10257 10260 10263 10265 10267 10270 10274 10278 10281 10282 10283 10285 10287 10288 10289 10291 10294 10296 10298 10300 10301 10305 10308 10311 10313 10313 10315 10317 10319 10320 10321 10324 10326 10327 10329 10331 10333 10335 10336 10336 10338 10338 10339 10341 10342 10344 10345 10346 10348 10350 10351 10352 10353 10355 10355 10355